Home   Weather   Jalandhar   Past weeks

Flag for India Past Weather in Jalandhar, Punjab, India — Yesterday and Last 2 Weeks

Now
72 °F

Clear.


Feels Like: 76 °F
Forecast: 49 / 79 °F
Wind: 8 mph from Northwest

Location: Amritsar Airport

Current Time: Feb 22, 2017 at 2:06:41 pm

Latest Report: Feb 22, 2017 at 1:00 pm


Visibility: 4 mi

Pressure: 29.98 "Hg

Humidity: 57%

Dew Point: 55 °F

Location of JalandharLocation

Past Weather in Jalandhar — Graph

°F

Jalandhar Temperature Yesterday

Maximum temperature yesterday: 73 °F (at 1:00 pm)
Minimum temperature yesterday: 48 °F (at 7:00 am)
Average temperature yesterday: 60 °F

High & Low Weather Summary for the Past Weeks

 TemperatureHumidityPressure
High82 °F (Feb 19, 1:00 pm)100% (Feb 7, 8:00 pm)30.24 "Hg (Feb 7, 8:00 pm)
Low41 °F (Feb 11, 7:30 am)27% (Feb 21, 5:30 pm)29.65 "Hg (Feb 20, 3:30 pm)
Average60 °F83%30.02 "Hg
* Reported Feb 7 12:30 pm — Feb 22 12:30 pm, Jalandhar, Weather by CustomWeather, © 2017

Note: Actual official high and low records may vary slightly from our data, if they occured in-between our weather recording intervals... More about our weather records

Advertising

Jalandhar Weather History for the Previous 24 Hours

Scroll right to see more
 ConditionsComfort  
Time TempWeatherWind HumidityBarometerVisibility
12:30 pm
Wed, Feb 22
70 °FClear.6 mph57%29.98 "Hg4 mi
12:00 pm70 °FClear.5 mph60%30.01 "Hg4 mi
11:30 am68 °FHaze.7 mph60%30.01 "Hg3 mi
11:00 am70 °FHaze.2 mph53%30.01 "Hg3 mi
10:30 am66 °FHaze.No wind64%29.98 "Hg3 mi
10:00 am63 °FFog.2 mph77%29.98 "Hg3 mi
9:30 am61 °FFog.2 mph83%29.98 "Hg3 mi
9:00 am57 °FFog.No wind100%29.95 "Hg3 mi
8:30 am54 °FFog.No wind100%29.95 "Hg2 mi
8:00 am50 °FFog.No wind100%29.92 "Hg2 mi
7:30 am48 °FFog.No wind100%29.92 "Hg2 mi
7:00 am48 °FFog.No wind100%29.89 "Hg2 mi
6:30 am50 °FFog.No wind100%29.89 "Hg2 mi
6:00 am48 °FFog.No wind100%29.89 "Hg2 mi
5:30 am50 °FFog.No wind100%29.86 "Hg2 mi
5:00 am50 °FFog.No wind100%29.86 "Hg2 mi
4:30 am50 °FFog.No wind100%29.86 "Hg2 mi
4:00 am50 °FFog.No wind100%29.86 "Hg2 mi
3:30 am48 °FFog.2 mph100%29.86 "Hg2 mi
3:00 am50 °FFog.No wind100%29.86 "Hg2 mi
2:30 am52 °FFog.No wind100%29.86 "Hg2 mi
1:00 am54 °FFog.No wind88%29.86 "Hg2 mi
12:30 am54 °FFog.No wind88%29.86 "Hg2 mi
12:00 am54 °FFog.No wind88%29.86 "Hg2 mi
11:30 pm
Tue, Feb 21
57 °FFog.No wind72%29.86 "Hg2 mi
11:00 pm55 °FFog.No wind77%29.86 "Hg2 mi
10:30 pm57 °FHaze.No wind67%29.86 "Hg2 mi
10:00 pm55 °FHaze.No wind72%29.86 "Hg2 mi
9:30 pm57 °FHaze.No wind67%29.83 "Hg2 mi
9:00 pm57 °FHaze.No wind63%29.83 "Hg2 mi
8:30 pm59 °FHaze.No wind59%29.83 "Hg2 mi
8:00 pm59 °FHaze.2 mph59%29.80 "Hg3 mi
7:30 pm64 °FHaze.2 mph49%29.80 "Hg2 mi
6:30 pm64 °FHaze.2 mph52%29.77 "Hg3 mi
6:00 pm70 °FClear.3 mph35%29.77 "Hg4 mi
5:30 pm72 °FClear.6 mph27%29.77 "Hg4 mi
5:00 pm72 °FClear.9 mph33%29.77 "Hg4 mi
4:00 pm73 °FClear.8 mph38%29.74 "Hg4 mi
3:30 pm73 °FClear.9 mph33%29.74 "Hg4 mi
3:00 pm73 °FClear.10 mph33%29.74 "Hg4 mi
2:30 pm73 °FClear.12 mph36%29.77 "Hg4 mi
Weather by CustomWeather, © 2017

See weather overviewHow to use our weather pages